Flag for Australia Weather past 2 weeks in Perth, Western Australia, Australia

Now
64 °F

Mostly cloudy.


Feels Like: 64 °F
Forecast: 46 / 59 °F
Wind: 15 mph from West

Location: Belmont Perth Airport

Current Time: Jul 30, 2014 at 3:16:18 PM

Latest Report: Jul 30, 2014 at 2:30 PM


Visibility: N/A

Pressure: 30.15 "Hg

Humidity: 60%

Dew point: 50 °F

Location of PerthLocation

Historic Weather in Perth — Graph

°F

Perth temperature yesterday

Maximum temperature yesterday: 66 °F (at 1:00 PM)
Minimum temperature yesterday: 50 °F (at 6:00 AM)
Average temperature yesterday: 59 °F

Past Weeks' High & Low Weather Summary

 TemperatureHumidityPressure
High68 °F (Jul 18, 2:30 PM)100% (Jul 16, 1:00 AM)30.42 "Hg (Jul 16, 1:00 AM)
Low37 °F (Jul 17, 3:30 AM)43% (Jul 18, 1:00 PM)29.83 "Hg (Jul 20, 3:00 AM)
Average55 °F80%30.12 "Hg
* Reported Jul 15 2:00 PM — Jul 30 2:00 PM, Perth, Weather by CustomWeather, © 2014

Note: Actual official high and low records may vary slightly from our data, if they occured in-between our weather recording intervals... More about our weather records

Advertising

Perth weather history for previous 24 hours

 ConditionsComfort  
Time TempWeatherWind HumidityBarometerVisibility
2:00 PM
Jul 30
64 °FMore clouds than sun.10 mph60%30.15 "HgN/A
1:30 PM64 °FOvercast.13 mph56%30.15 "HgN/A
1:00 PM64 °FOvercast.13 mph56%30.15 "HgN/A
12:30 PM64 °FOvercast.13 mph56%30.15 "HgN/A
12:00 PM64 °FOvercast.13 mph52%30.15 "HgN/A
11:30 AM64 °FMore clouds than sun.13 mph52%30.15 "HgN/A
11:00 AM63 °FMore clouds than sun.12 mph59%30.18 "HgN/A
10:30 AM63 °FMore clouds than sun.8 mph64%30.18 "HgN/A
10:00 AM63 °FOvercast.8 mph59%30.18 "HgN/A
9:30 AM63 °FOvercast.8 mph59%30.18 "HgN/A
9:00 AM63 °FOvercast.7 mph59%30.18 "HgN/A
8:30 AM61 °FOvercast.8 mph68%30.18 "HgN/A
8:00 AM61 °FOvercast.8 mph63%30.18 "HgN/A
7:30 AM61 °FPartly sunny.8 mph59%30.15 "HgN/A
7:00 AM61 °FOvercast.10 mph59%30.15 "HgN/A
6:30 AM61 °FOvercast.9 mph63%30.15 "HgN/A
6:00 AM61 °FOvercast.7 mph63%30.15 "HgN/A
5:30 AM61 °FOvercast.9 mph59%30.15 "HgN/A
5:00 AM61 °FPassing clouds.9 mph59%30.15 "HgN/A
4:30 AM61 °FPassing clouds.12 mph59%30.15 "HgN/A
4:00 AM59 °FPassing clouds.7 mph72%30.15 "HgN/A
3:30 AM59 °FPassing clouds.5 mph72%30.15 "HgN/A
3:00 AM61 °FPassing clouds.7 mph63%30.15 "HgN/A
2:30 AM61 °FPassing clouds.7 mph68%30.18 "HgN/A
2:00 AM59 °FPassing clouds.7 mph72%30.18 "HgN/A
1:30 AM61 °FPassing clouds.6 mph68%30.18 "HgN/A
1:00 AM61 °FPassing clouds.6 mph68%30.18 "HgN/A
12:30 AM61 °FPassing clouds.7 mph63%30.21 "HgN/A
12:00 AM61 °FPassing clouds.9 mph68%30.21 "HgN/A
11:30 PM
Jul 29
61 °FPassing clouds.8 mph68%30.21 "HgN/A
11:00 PM61 °FPassing clouds.6 mph63%30.21 "HgN/A
10:30 PM61 °FPassing clouds.7 mph63%30.21 "HgN/A
10:00 PM61 °FPassing clouds.6 mph63%30.21 "HgN/A
9:30 PM59 °FPassing clouds.7 mph72%30.21 "HgN/A
9:00 PM59 °FPassing clouds.7 mph72%30.21 "HgN/A
8:30 PM61 °FPassing clouds.8 mph63%30.21 "HgN/A
8:00 PM61 °FPassing clouds.8 mph68%30.21 "HgN/A
7:30 PM59 °FPassing clouds.5 mph82%30.21 "HgN/A
7:00 PM59 °FPassing clouds.5 mph77%30.21 "HgN/A
6:30 PM59 °FPassing clouds.5 mph77%30.21 "HgN/A
6:00 PM61 °FPartly cloudy.7 mph72%30.21 "HgN/A
5:00 PM63 °FPassing clouds.10 mph64%30.21 "HgN/A
4:30 PM64 °FPassing clouds.13 mph64%30.18 "HgN/A
4:00 PM64 °FScattered clouds.10 mph60%30.18 "HgN/A
3:30 PM64 °FScattered clouds.10 mph64%30.18 "HgN/A
3:00 PM66 °FScattered clouds.13 mph56%30.18 "HgN/A
Weather by CustomWeather, © 2014

See weather overviewHow to use our weather pages